Year,Month,Day,Hour,Minute,Value (Times are PST for temperature in C)
2009,04,05,00,00,2.80
2009,04,05,00,01,2.80
2009,04,05,00,02,2.80
2009,04,05,00,03,2.80
2009,04,05,00,04,2.70
2009,04,05,00,05,2.70
2009,04,05,00,06,2.70
2009,04,05,00,07,2.70
2009,04,05,00,08,2.70
2009,04,05,00,09,2.70
2009,04,05,00,10,2.70
2009,04,05,00,11,2.70
2009,04,05,00,12,2.70
2009,04,05,00,13,2.70
2009,04,05,00,14,2.60
2009,04,05,00,15,2.60
2009,04,05,00,16,2.60
2009,04,05,00,17,2.60
2009,04,05,00,18,2.60
2009,04,05,00,19,2.60
2009,04,05,00,20,2.60
2009,04,05,00,21,2.60
2009,04,05,00,22,2.60
2009,04,05,00,23,2.60
2009,04,05,00,24,2.50
2009,04,05,00,25,2.50
2009,04,05,00,26,2.50
2009,04,05,00,27,2.50
2009,04,05,00,28,2.50
2009,04,05,00,29,2.50
2009,04,05,00,30,2.50
2009,04,05,00,31,2.40
2009,04,05,00,32,2.40
2009,04,05,00,33,2.40
2009,04,05,00,34,2.40
2009,04,05,00,35,2.40
2009,04,05,00,36,2.40
2009,04,05,00,37,2.40
2009,04,05,00,38,2.40
2009,04,05,00,39,2.30
2009,04,05,00,40,2.30
2009,04,05,00,41,2.30
2009,04,05,00,42,2.30
2009,04,05,00,43,2.30
2009,04,05,00,44,2.30
2009,04,05,00,45,2.30
2009,04,05,00,46,2.30
2009,04,05,00,47,2.30
2009,04,05,00,48,2.30
2009,04,05,00,49,2.30
2009,04,05,00,50,2.30
2009,04,05,00,51,2.30
2009,04,05,00,52,2.30
2009,04,05,00,53,2.30
2009,04,05,00,54,2.20
2009,04,05,00,55,2.20
2009,04,05,00,56,2.20
2009,04,05,00,57,2.20
2009,04,05,00,58,2.20
2009,04,05,00,59,2.20
2009,04,05,01,00,2.20
2009,04,05,01,01,2.20
2009,04,05,01,02,2.10
2009,04,05,01,03,2.10
2009,04,05,01,04,2.10
2009,04,05,01,05,2.10
2009,04,05,01,06,2.10
2009,04,05,01,07,2.10
2009,04,05,01,08,2.10
2009,04,05,01,09,2.10
2009,04,05,01,10,2.00
2009,04,05,01,11,2.00
2009,04,05,01,12,2.00
2009,04,05,01,13,2.00
2009,04,05,01,14,2.00
2009,04,05,01,15,1.90
2009,04,05,01,16,1.90
2009,04,05,01,17,1.90
2009,04,05,01,18,1.90
2009,04,05,01,19,1.90
2009,04,05,01,20,1.90
2009,04,05,01,21,1.90
2009,04,05,01,22,1.90
2009,04,05,01,23,1.90
2009,04,05,01,24,1.90
2009,04,05,01,25,1.80
2009,04,05,01,26,1.80
2009,04,05,01,27,1.80
2009,04,05,01,28,1.80
2009,04,05,01,29,1.80
2009,04,05,01,30,1.80
2009,04,05,01,31,1.80
2009,04,05,01,32,1.80
2009,04,05,01,33,1.80
2009,04,05,01,34,1.80
2009,04,05,01,35,1.80
2009,04,05,01,36,1.80
2009,04,05,01,37,1.80
2009,04,05,01,38,1.80
2009,04,05,01,39,1.80
2009,04,05,01,40,1.70
2009,04,05,01,41,1.70
2009,04,05,01,42,1.70
2009,04,05,01,43,1.70
2009,04,05,01,44,1.70
2009,04,05,01,45,1.70
2009,04,05,01,46,1.70
2009,04,05,01,47,1.70
2009,04,05,01,48,1.70
2009,04,05,01,49,1.70
2009,04,05,01,50,1.70
2009,04,05,01,51,1.70
2009,04,05,01,52,1.70
2009,04,05,01,53,1.70
2009,04,05,01,54,1.70
2009,04,05,01,55,1.70
2009,04,05,01,56,1.70
2009,04,05,01,57,1.70
2009,04,05,01,58,1.70
2009,04,05,01,59,1.70
2009,04,05,02,00,1.60
2009,04,05,02,01,1.60
2009,04,05,02,02,1.60
2009,04,05,02,03,1.60
2009,04,05,02,04,1.60
2009,04,05,02,05,1.60
2009,04,05,02,06,1.60
2009,04,05,02,07,1.60
2009,04,05,02,08,1.60
2009,04,05,02,09,1.60
2009,04,05,02,10,1.60
2009,04,05,02,11,1.60
2009,04,05,02,12,1.60
2009,04,05,02,13,1.60
2009,04,05,02,14,1.50
2009,04,05,02,15,1.50
2009,04,05,02,16,1.50
2009,04,05,02,17,1.50
2009,04,05,02,18,1.50
2009,04,05,02,19,1.40
2009,04,05,02,20,1.40
2009,04,05,02,21,1.40
2009,04,05,02,22,1.40
2009,04,05,02,23,1.40
2009,04,05,02,24,1.30
2009,04,05,02,25,1.30
2009,04,05,02,26,1.30
2009,04,05,02,27,1.30
2009,04,05,02,28,1.30
2009,04,05,02,29,1.30
2009,04,05,02,30,1.30
2009,04,05,02,31,1.30
2009,04,05,02,32,1.30
2009,04,05,02,33,1.30
2009,04,05,02,34,1.30
2009,04,05,02,35,1.30
2009,04,05,02,36,1.30
2009,04,05,02,37,1.30
2009,04,05,02,38,1.30
2009,04,05,02,39,1.30
2009,04,05,02,40,1.30
2009,04,05,02,41,1.30
2009,04,05,02,42,1.30
2009,04,05,02,43,1.30
2009,04,05,02,44,1.30
2009,04,05,02,45,1.30
2009,04,05,02,46,1.30
2009,04,05,02,47,1.30
2009,04,05,02,48,1.30
2009,04,05,02,49,1.30
2009,04,05,02,50,1.30
2009,04,05,02,51,1.30
2009,04,05,02,52,1.30
2009,04,05,02,53,1.30
2009,04,05,02,54,1.30
2009,04,05,02,55,1.30
2009,04,05,02,56,1.30
2009,04,05,02,57,1.30
2009,04,05,02,58,1.30
2009,04,05,02,59,1.20
2009,04,05,03,00,1.30
2009,04,05,03,01,1.20
2009,04,05,03,02,1.20
2009,04,05,03,03,1.20
2009,04,05,03,04,1.20
2009,04,05,03,05,1.20
2009,04,05,03,06,1.20
2009,04,05,03,07,1.20
2009,04,05,03,08,1.20
2009,04,05,03,09,1.20
2009,04,05,03,10,1.20
2009,04,05,03,11,1.20
2009,04,05,03,12,1.10
2009,04,05,03,13,1.10
2009,04,05,03,14,1.10
2009,04,05,03,15,1.10
2009,04,05,03,16,1.10
2009,04,05,03,17,1.10
2009,04,05,03,18,1.10
2009,04,05,03,19,1.10
2009,04,05,03,20,1.10
2009,04,05,03,21,1.10
2009,04,05,03,22,1.10
2009,04,05,03,23,1.10
2009,04,05,03,24,1.00
2009,04,05,03,25,1.10
2009,04,05,03,26,1.10
2009,04,05,03,27,1.10
2009,04,05,03,28,1.00
2009,04,05,03,29,1.00
2009,04,05,03,30,1.00
2009,04,05,03,31,1.00
2009,04,05,03,32,1.00
2009,04,05,03,33,1.00
2009,04,05,03,34,1.00
2009,04,05,03,35,1.00
2009,04,05,03,36,1.00
2009,04,05,03,37,1.00
2009,04,05,03,38,1.00
2009,04,05,03,39,1.00
2009,04,05,03,40,1.00
2009,04,05,03,41,0.90
2009,04,05,03,42,0.90
2009,04,05,03,43,0.90
2009,04,05,03,44,0.90
2009,04,05,03,45,0.90
2009,04,05,03,46,0.90
2009,04,05,03,47,0.90
2009,04,05,03,48,0.90
2009,04,05,03,49,0.90
2009,04,05,03,50,0.80
2009,04,05,03,51,0.80
2009,04,05,03,52,0.80
2009,04,05,03,53,0.80
2009,04,05,03,54,0.80
2009,04,05,03,55,0.80
2009,04,05,03,56,0.80
2009,04,05,03,57,0.80
2009,04,05,03,58,0.80
2009,04,05,03,59,0.80
2009,04,05,04,00,0.80
2009,04,05,04,01,0.80
2009,04,05,04,02,0.80
2009,04,05,04,03,0.80
2009,04,05,04,04,0.80
2009,04,05,04,05,0.80
2009,04,05,04,06,0.70
2009,04,05,04,07,0.70
2009,04,05,04,08,0.70
2009,04,05,04,09,0.70
2009,04,05,04,10,0.70
2009,04,05,04,11,0.70
2009,04,05,04,12,0.70
2009,04,05,04,13,0.70
2009,04,05,04,14,0.70
2009,04,05,04,15,0.70
2009,04,05,04,16,0.70
2009,04,05,04,17,0.70
2009,04,05,04,18,0.70
2009,04,05,04,19,0.70
2009,04,05,04,20,0.70
2009,04,05,04,21,0.70
2009,04,05,04,22,0.70
2009,04,05,04,23,0.70
2009,04,05,04,24,0.70
2009,04,05,04,25,0.70
2009,04,05,04,26,0.70
2009,04,05,04,27,0.70
2009,04,05,04,28,0.60
2009,04,05,04,29,0.60
2009,04,05,04,30,0.60
2009,04,05,04,31,0.60
2009,04,05,04,32,0.60
2009,04,05,04,33,0.60
2009,04,05,04,34,0.60
2009,04,05,04,35,0.60
2009,04,05,04,36,0.60
2009,04,05,04,37,0.60
2009,04,05,04,38,0.60
2009,04,05,04,39,0.60
2009,04,05,04,40,0.60
2009,04,05,04,41,0.60
2009,04,05,04,42,0.60
2009,04,05,04,43,0.60
2009,04,05,04,44,0.60
2009,04,05,04,45,0.60
2009,04,05,04,46,0.60
2009,04,05,04,47,0.60
2009,04,05,04,48,0.50
2009,04,05,04,49,0.50
2009,04,05,04,50,0.50
2009,04,05,04,51,0.50
2009,04,05,04,52,0.50
2009,04,05,04,53,0.50
2009,04,05,04,54,0.50
2009,04,05,04,55,0.50
2009,04,05,04,56,0.50
2009,04,05,04,57,0.40
2009,04,05,04,58,0.40
2009,04,05,04,59,0.40
2009,04,05,05,00,0.40
2009,04,05,05,01,0.40
2009,04,05,05,02,0.40
2009,04,05,05,03,0.40
2009,04,05,05,04,0.40
2009,04,05,05,05,0.40
2009,04,05,05,06,0.40
2009,04,05,05,07,0.40
2009,04,05,05,08,0.40
2009,04,05,05,09,0.40
2009,04,05,05,10,0.40
2009,04,05,05,11,0.40
2009,04,05,05,12,0.40
2009,04,05,05,13,0.40
2009,04,05,05,14,0.40
2009,04,05,05,15,0.40
2009,04,05,05,16,0.40
2009,04,05,05,17,0.30
2009,04,05,05,18,0.40
2009,04,05,05,19,0.30
2009,04,05,05,20,0.30
2009,04,05,05,21,0.30
2009,04,05,05,22,0.30
2009,04,05,05,23,0.30
2009,04,05,05,24,0.30
2009,04,05,05,25,0.30
2009,04,05,05,26,0.30
2009,04,05,05,27,0.30
2009,04,05,05,28,0.30
2009,04,05,05,29,0.30
2009,04,05,05,30,0.30
2009,04,05,05,31,0.30
2009,04,05,05,32,0.30
2009,04,05,05,33,0.30
2009,04,05,05,34,0.30
2009,04,05,05,35,0.30
2009,04,05,05,36,0.30
2009,04,05,05,37,0.30
2009,04,05,05,38,0.30
2009,04,05,05,39,0.30
2009,04,05,05,40,0.30
2009,04,05,05,41,0.30
2009,04,05,05,42,0.30
2009,04,05,05,43,0.30
2009,04,05,05,44,0.20
2009,04,05,05,45,0.20
2009,04,05,05,46,0.20
2009,04,05,05,47,0.20
2009,04,05,05,48,0.20
2009,04,05,05,49,0.20
2009,04,05,05,50,0.20
2009,04,05,05,51,0.20
2009,04,05,05,52,0.20
2009,04,05,05,53,0.20
2009,04,05,05,54,0.20
2009,04,05,05,55,0.20
2009,04,05,05,56,0.20
2009,04,05,05,57,0.20
2009,04,05,05,58,0.20
2009,04,05,05,59,0.20
2009,04,05,06,00,0.20
2009,04,05,06,01,0.20
2009,04,05,06,02,0.20
2009,04,05,06,03,0.20
2009,04,05,06,04,0.20
2009,04,05,06,05,0.20
2009,04,05,06,06,0.20
2009,04,05,06,07,0.20
2009,04,05,06,08,0.20
2009,04,05,06,09,0.20
2009,04,05,06,10,0.20
2009,04,05,06,11,0.20
2009,04,05,06,12,0.20
2009,04,05,06,13,0.20
2009,04,05,06,14,0.20
2009,04,05,06,15,0.20
2009,04,05,06,16,0.20
2009,04,05,06,17,0.20
2009,04,05,06,18,0.20
2009,04,05,06,19,0.20
2009,04,05,06,20,0.20
2009,04,05,06,21,0.20
2009,04,05,06,22,0.20
2009,04,05,06,23,0.20
2009,04,05,06,24,0.20
2009,04,05,06,25,0.20
2009,04,05,06,26,0.20
2009,04,05,06,27,0.20
2009,04,05,06,28,0.20
2009,04,05,06,29,0.20
2009,04,05,06,30,0.20
2009,04,05,06,31,0.20
2009,04,05,06,32,0.10
2009,04,05,06,33,0.10
2009,04,05,06,34,0.10
2009,04,05,06,35,0.10
2009,04,05,06,36,0.10
2009,04,05,06,37,0.10
2009,04,05,06,38,0.10
2009,04,05,06,39,0.10
2009,04,05,06,40,0.10
2009,04,05,06,41,0.10
2009,04,05,06,42,0.10
2009,04,05,06,43,0.10
2009,04,05,06,44,0.10
2009,04,05,06,45,0.10
2009,04,05,06,46,0.10
2009,04,05,06,47,0.10
2009,04,05,06,48,0.10
2009,04,05,06,49,0.00
2009,04,05,06,50,0.10
2009,04,05,06,51,0.10
2009,04,05,06,52,0.10
2009,04,05,06,53,0.10
2009,04,05,06,54,0.10
2009,04,05,06,55,0.10
2009,04,05,06,56,0.10
2009,04,05,06,57,0.10
2009,04,05,06,58,0.10
2009,04,05,06,59,0.10
2009,04,05,07,00,0.10
2009,04,05,07,01,0.10
2009,04,05,07,02,0.10
2009,04,05,07,03,0.10
2009,04,05,07,04,0.10
2009,04,05,07,05,0.10
2009,04,05,07,06,0.10
2009,04,05,07,07,0.10
2009,04,05,07,08,0.10
2009,04,05,07,09,0.10
2009,04,05,07,10,0.10
2009,04,05,07,11,0.10
2009,04,05,07,12,0.10
2009,04,05,07,13,0.10
2009,04,05,07,14,0.10
2009,04,05,07,15,0.10
2009,04,05,07,16,0.10
2009,04,05,07,17,0.10
2009,04,05,07,18,0.10
2009,04,05,07,19,0.10
2009,04,05,07,20,0.10
2009,04,05,07,21,0.10
2009,04,05,07,22,0.20
2009,04,05,07,23,0.20
2009,04,05,07,24,0.20
2009,04,05,07,25,0.20
2009,04,05,07,26,0.20
2009,04,05,07,27,0.20
2009,04,05,07,28,0.20
2009,04,05,07,29,0.20
2009,04,05,07,30,0.20
2009,04,05,07,31,0.20
2009,04,05,07,32,0.20
2009,04,05,07,33,0.30
2009,04,05,07,34,0.30
2009,04,05,07,35,0.30
2009,04,05,07,36,0.30
2009,04,05,07,37,0.30
2009,04,05,07,38,0.30
2009,04,05,07,39,0.30
2009,04,05,07,40,0.30
2009,04,05,07,41,0.30
2009,04,05,07,42,0.30
2009,04,05,07,43,0.30
2009,04,05,07,44,0.30
2009,04,05,07,45,0.30
2009,04,05,07,46,0.30
2009,04,05,07,47,0.40
2009,04,05,07,48,0.40
2009,04,05,07,49,0.40
2009,04,05,07,50,0.40
2009,04,05,07,51,0.40
2009,04,05,07,52,0.40
2009,04,05,07,53,0.50
2009,04,05,07,54,0.50
2009,04,05,07,55,0.50
2009,04,05,07,56,0.50
2009,04,05,07,57,0.60
2009,04,05,07,58,0.60
2009,04,05,07,59,0.60
2009,04,05,08,00,0.60
2009,04,05,08,01,0.60
2009,04,05,08,02,0.60
2009,04,05,08,03,0.60
2009,04,05,08,04,0.60
2009,04,05,08,05,0.70
2009,04,05,08,06,0.70
2009,04,05,08,07,0.70
2009,04,05,08,08,0.70
2009,04,05,08,09,0.70
2009,04,05,08,10,0.70
2009,04,05,08,11,0.70
2009,04,05,08,12,0.70
2009,04,05,08,13,0.70
2009,04,05,08,14,0.80
2009,04,05,08,15,0.80
2009,04,05,08,16,0.80
2009,04,05,08,17,0.80
2009,04,05,08,18,0.80
2009,04,05,08,19,0.80
2009,04,05,08,20,0.80
2009,04,05,08,21,0.80
2009,04,05,08,22,0.80
2009,04,05,08,23,0.90
2009,04,05,08,24,0.90
2009,04,05,08,25,0.90
2009,04,05,08,26,0.90
2009,04,05,08,27,1.00
2009,04,05,08,28,1.00
2009,04,05,08,29,1.10
2009,04,05,08,30,1.10
2009,04,05,08,31,1.10
2009,04,05,08,32,1.20
2009,04,05,08,33,1.20
2009,04,05,08,34,1.20
2009,04,05,08,35,1.20
2009,04,05,08,36,1.30
2009,04,05,08,37,1.30
2009,04,05,08,38,1.30
2009,04,05,08,39,1.30
2009,04,05,08,40,1.30
2009,04,05,08,41,1.30
2009,04,05,08,42,1.30
2009,04,05,08,43,1.30
2009,04,05,08,44,1.30
2009,04,05,08,45,1.30
2009,04,05,08,46,1.30
2009,04,05,08,47,1.40
2009,04,05,08,48,1.40
2009,04,05,08,49,1.40
2009,04,05,08,50,1.50
2009,04,05,08,51,1.50
2009,04,05,08,52,1.50
2009,04,05,08,53,1.60
2009,04,05,08,54,1.60
2009,04,05,08,55,1.60
2009,04,05,08,56,1.60
2009,04,05,08,57,1.70
2009,04,05,08,58,1.70
2009,04,05,08,59,1.70
2009,04,05,09,00,1.70
2009,04,05,09,01,1.80
2009,04,05,09,02,1.80
2009,04,05,09,03,1.80
2009,04,05,09,04,1.80
2009,04,05,09,05,1.90
2009,04,05,09,06,1.90
2009,04,05,09,07,1.90
2009,04,05,09,08,1.90
2009,04,05,09,09,2.00
2009,04,05,09,10,2.00
2009,04,05,09,11,2.10
2009,04,05,09,12,2.10
2009,04,05,09,13,2.10
2009,04,05,09,14,2.10
2009,04,05,09,15,2.20
2009,04,05,09,16,2.20
2009,04,05,09,17,2.20
2009,04,05,09,18,2.20
2009,04,05,09,19,2.30
2009,04,05,09,20,2.30
2009,04,05,09,21,2.30
2009,04,05,09,22,2.30
2009,04,05,09,23,2.40
2009,04,05,09,24,2.40
2009,04,05,09,25,2.40
2009,04,05,09,26,2.50
2009,04,05,09,27,2.50
2009,04,05,09,28,2.60
2009,04,05,09,29,2.60
2009,04,05,09,30,2.60
2009,04,05,09,31,2.70
2009,04,05,09,32,2.70
2009,04,05,09,33,2.70
2009,04,05,09,34,2.80
2009,04,05,09,35,2.80
2009,04,05,09,36,2.80
2009,04,05,09,37,2.80
2009,04,05,09,38,2.90
2009,04,05,09,39,2.90
2009,04,05,09,40,2.90
2009,04,05,09,41,3.00
2009,04,05,09,42,3.00
2009,04,05,09,43,3.10
2009,04,05,09,44,3.10
2009,04,05,09,45,3.10
2009,04,05,09,46,3.10
2009,04,05,09,47,3.20
2009,04,05,09,48,3.20
2009,04,05,09,49,3.20
2009,04,05,09,50,3.30
2009,04,05,09,51,3.30
2009,04,05,09,52,3.30
2009,04,05,09,53,3.40
2009,04,05,09,54,3.40
2009,04,05,09,55,3.40
2009,04,05,09,56,3.50
2009,04,05,09,57,3.50
2009,04,05,09,58,3.60
2009,04,05,09,59,3.60
2009,04,05,10,00,3.60
2009,04,05,10,01,3.70
2009,04,05,10,02,3.80
2009,04,05,10,03,3.80
2009,04,05,10,04,3.90
2009,04,05,10,05,3.90
2009,04,05,10,06,4.00
2009,04,05,10,07,4.10
2009,04,05,10,08,4.10
2009,04,05,10,09,4.20
2009,04,05,10,10,4.30
2009,04,05,10,11,4.30
2009,04,05,10,12,4.40
2009,04,05,10,13,4.60
2009,04,05,10,14,4.60
2009,04,05,10,15,4.70
2009,04,05,10,16,4.80
2009,04,05,10,17,4.90
2009,04,05,10,18,4.90
2009,04,05,10,19,5.00
2009,04,05,10,20,5.10
2009,04,05,10,21,5.10
2009,04,05,10,22,5.30
2009,04,05,10,23,5.30
2009,04,05,10,24,5.40
2009,04,05,10,25,5.50
2009,04,05,10,26,5.50
2009,04,05,10,27,5.60
2009,04,05,10,28,5.70
2009,04,05,10,29,5.70
2009,04,05,10,30,5.80
2009,04,05,10,31,5.80
2009,04,05,10,32,5.80
2009,04,05,10,33,5.90
2009,04,05,10,34,6.00
2009,04,05,10,35,6.00
2009,04,05,10,36,6.10
2009,04,05,10,37,6.20
2009,04,05,10,38,6.20
2009,04,05,10,39,6.30
2009,04,05,10,40,6.40
2009,04,05,10,41,6.50
2009,04,05,10,42,6.60
2009,04,05,10,43,6.70
2009,04,05,10,44,6.70
2009,04,05,10,45,6.80
2009,04,05,10,46,6.90
2009,04,05,10,47,7.00
2009,04,05,10,48,7.00
2009,04,05,10,49,7.10
2009,04,05,10,50,7.20
2009,04,05,10,51,7.20
2009,04,05,10,52,7.30
2009,04,05,10,53,7.40
2009,04,05,10,54,7.50
2009,04,05,10,55,7.60
2009,04,05,10,56,7.70
2009,04,05,10,57,7.70
2009,04,05,10,58,7.80
2009,04,05,10,59,7.80
2009,04,05,11,00,7.90
2009,04,05,11,01,8.00
2009,04,05,11,02,8.10
2009,04,05,11,03,8.10
2009,04,05,11,04,8.20
2009,04,05,11,05,8.20
2009,04,05,11,06,8.30
2009,04,05,11,07,8.40
2009,04,05,11,08,8.40
2009,04,05,11,09,8.50
2009,04,05,11,10,8.50
2009,04,05,11,11,8.60
2009,04,05,11,12,8.60
2009,04,05,11,13,8.60
2009,04,05,11,14,8.70
2009,04,05,11,15,8.70
2009,04,05,11,16,8.70
2009,04,05,11,17,8.80
2009,04,05,11,18,8.80
2009,04,05,11,19,8.80
2009,04,05,11,20,8.90
2009,04,05,11,21,8.90
2009,04,05,11,22,9.00
2009,04,05,11,23,9.00
2009,04,05,11,24,9.00
2009,04,05,11,25,9.10
2009,04,05,11,26,9.10
2009,04,05,11,27,9.20
2009,04,05,11,28,9.20
2009,04,05,11,29,9.30
2009,04,05,11,30,9.30
2009,04,05,11,31,9.30
2009,04,05,11,32,9.40
2009,04,05,11,33,9.40
2009,04,05,11,34,9.50
2009,04,05,11,35,9.50
2009,04,05,11,36,9.60
2009,04,05,11,37,9.60
2009,04,05,11,38,9.70
2009,04,05,11,39,9.70
2009,04,05,11,40,9.70
2009,04,05,11,41,9.80
2009,04,05,11,42,9.80
2009,04,05,11,43,9.80
2009,04,05,11,44,9.90
2009,04,05,11,45,9.90
2009,04,05,11,46,9.90
2009,04,05,11,47,9.90
2009,04,05,11,48,10.00
2009,04,05,11,49,10.00
2009,04,05,11,50,10.10
2009,04,05,11,51,10.10
2009,04,05,11,52,10.20
2009,04,05,11,53,10.30
2009,04,05,11,54,10.30
2009,04,05,11,55,10.30
2009,04,05,11,56,10.40
2009,04,05,11,57,10.40
2009,04,05,11,58,10.50
2009,04,05,11,59,10.60
2009,04,05,12,00,10.60
2009,04,05,12,01,10.60
2009,04,05,12,02,10.60
2009,04,05,12,03,10.70
2009,04,05,12,04,10.70
2009,04,05,12,05,10.70
2009,04,05,12,06,10.80
2009,04,05,12,07,10.80
2009,04,05,12,08,10.90
2009,04,05,12,09,11.00
2009,04,05,12,10,11.10
2009,04,05,12,11,11.10
2009,04,05,12,12,11.20
2009,04,05,12,13,11.30
2009,04,05,12,14,11.30
2009,04,05,12,15,11.40
2009,04,05,12,16,11.50
2009,04,05,12,17,11.50
2009,04,05,12,18,11.60
2009,04,05,12,19,11.70
2009,04,05,12,20,11.70
2009,04,05,12,21,11.80
2009,04,05,12,22,11.80
2009,04,05,12,23,11.90
2009,04,05,12,24,12.00
2009,04,05,12,25,12.10
2009,04,05,12,26,12.10
2009,04,05,12,27,12.10
2009,04,05,12,28,12.20
2009,04,05,12,29,12.20
2009,04,05,12,30,12.30
2009,04,05,12,31,12.30
2009,04,05,12,32,12.30
2009,04,05,12,33,12.30
2009,04,05,12,34,12.40
2009,04,05,12,35,12.40
2009,04,05,12,36,12.40
2009,04,05,12,37,12.50
2009,04,05,12,38,12.50
2009,04,05,12,39,12.60
2009,04,05,12,40,12.60
2009,04,05,12,41,12.50
2009,04,05,12,42,12.50
2009,04,05,12,43,12.50
2009,04,05,12,44,12.50
2009,04,05,12,45,12.50
2009,04,05,12,46,12.50
2009,04,05,12,47,12.60
2009,04,05,12,48,12.60
2009,04,05,12,49,12.60
2009,04,05,12,50,12.70
2009,04,05,12,51,12.70
2009,04,05,12,52,12.70
2009,04,05,12,53,12.80
2009,04,05,12,54,12.80
2009,04,05,12,55,12.80
2009,04,05,12,56,12.90
2009,04,05,12,57,12.90
2009,04,05,12,58,12.90
2009,04,05,12,59,13.00
2009,04,05,13,00,13.00
2009,04,05,13,01,13.00
2009,04,05,13,02,13.00
2009,04,05,13,03,13.10
2009,04,05,13,04,13.10
2009,04,05,13,05,13.10
2009,04,05,13,06,13.10
2009,04,05,13,07,13.10
2009,04,05,13,08,13.10
2009,04,05,13,09,13.10
2009,04,05,13,10,13.10
2009,04,05,13,11,13.20
2009,04,05,13,12,13.20
2009,04,05,13,13,13.20
2009,04,05,13,14,13.30
2009,04,05,13,15,13.30
2009,04,05,13,16,13.30
2009,04,05,13,17,13.30
2009,04,05,13,18,13.30
2009,04,05,13,19,13.30
2009,04,05,13,20,13.30
2009,04,05,13,21,13.30
2009,04,05,13,22,13.30
2009,04,05,13,23,13.30
2009,04,05,13,24,13.40
2009,04,05,13,25,13.50
2009,04,05,13,26,13.50
2009,04,05,13,27,13.60
2009,04,05,13,28,13.60
2009,04,05,13,29,13.70
2009,04,05,13,30,13.70
2009,04,05,13,31,13.80
2009,04,05,13,32,13.80
2009,04,05,13,33,13.90
2009,04,05,13,34,13.90
2009,04,05,13,35,14.00
2009,04,05,13,36,14.00
2009,04,05,13,37,14.10
2009,04,05,13,38,14.20
2009,04,05,13,39,14.20
2009,04,05,13,40,14.20
2009,04,05,13,41,14.20
2009,04,05,13,42,14.30
2009,04,05,13,43,14.20
2009,04,05,13,44,14.20
2009,04,05,13,45,14.30
2009,04,05,13,46,14.30
2009,04,05,13,47,14.30
2009,04,05,13,48,14.30
2009,04,05,13,49,14.30
2009,04,05,13,50,14.30
2009,04,05,13,51,14.40
2009,04,05,13,52,14.40
2009,04,05,13,53,14.50
2009,04,05,13,54,14.50
2009,04,05,13,55,14.60
2009,04,05,13,56,14.60
2009,04,05,13,57,14.70
2009,04,05,13,58,14.80
2009,04,05,13,59,14.80
2009,04,05,14,00,14.90
2009,04,05,14,01,15.00
2009,04,05,14,02,15.00
2009,04,05,14,03,15.00
2009,04,05,14,04,15.00
2009,04,05,14,05,15.20
2009,04,05,14,06,15.20
2009,04,05,14,07,15.30
2009,04,05,14,08,15.30
2009,04,05,14,09,15.30
2009,04,05,14,10,15.30
2009,04,05,14,11,15.40
2009,04,05,14,12,15.40
2009,04,05,14,13,15.40
2009,04,05,14,14,15.50
2009,04,05,14,15,15.50
2009,04,05,14,16,15.60
2009,04,05,14,17,15.60
2009,04,05,14,18,15.60
2009,04,05,14,19,15.70
2009,04,05,14,20,15.70
2009,04,05,14,21,15.80
2009,04,05,14,22,15.80
2009,04,05,14,23,15.90
2009,04,05,14,24,15.90
2009,04,05,14,25,15.90
2009,04,05,14,26,15.90
2009,04,05,14,27,15.90
2009,04,05,14,28,15.90
2009,04,05,14,29,15.90
2009,04,05,14,30,15.90
2009,04,05,14,31,15.80
2009,04,05,14,32,15.80
2009,04,05,14,33,15.80
2009,04,05,14,34,15.80
2009,04,05,14,35,15.80
2009,04,05,14,36,15.80
2009,04,05,14,37,15.80
2009,04,05,14,38,15.80
2009,04,05,14,39,15.80
2009,04,05,14,40,15.80
2009,04,05,14,41,15.80
2009,04,05,14,42,15.80
2009,04,05,14,43,15.80
2009,04,05,14,44,15.80
2009,04,05,14,45,15.80
2009,04,05,14,46,15.90
2009,04,05,14,47,15.90
2009,04,05,14,48,16.00
2009,04,05,14,49,16.00
2009,04,05,14,50,16.00
2009,04,05,14,51,16.00
2009,04,05,14,52,16.10
2009,04,05,14,53,16.10
2009,04,05,14,54,16.10
2009,04,05,14,55,16.10
2009,04,05,14,56,16.10
2009,04,05,14,57,16.10
2009,04,05,14,58,16.10
2009,04,05,14,59,16.10
2009,04,05,15,00,16.10
2009,04,05,15,01,16.10
2009,04,05,15,02,16.10
2009,04,05,15,03,16.20
2009,04,05,15,04,16.20
2009,04,05,15,05,16.20
2009,04,05,15,06,16.20
2009,04,05,15,07,16.20
2009,04,05,15,08,16.20
2009,04,05,15,09,16.30
2009,04,05,15,10,16.30
2009,04,05,15,11,16.30
2009,04,05,15,12,16.30
2009,04,05,15,13,16.40
2009,04,05,15,14,16.40
2009,04,05,15,15,16.40
2009,04,05,15,16,16.50
2009,04,05,15,17,16.50
2009,04,05,15,18,16.50
2009,04,05,15,19,16.50
2009,04,05,15,20,16.50
2009,04,05,15,21,16.50
2009,04,05,15,22,16.40
2009,04,05,15,23,16.40
2009,04,05,15,24,16.40
2009,04,05,15,25,16.40
2009,04,05,15,26,16.40
2009,04,05,15,27,16.50
2009,04,05,15,28,16.50
2009,04,05,15,29,16.40
2009,04,05,15,30,16.40
2009,04,05,15,31,16.40
2009,04,05,15,32,16.40
2009,04,05,15,33,16.40
2009,04,05,15,34,16.40
2009,04,05,15,35,16.50
2009,04,05,15,36,16.50
2009,04,05,15,37,16.50
2009,04,05,15,38,16.60
2009,04,05,15,39,16.60
2009,04,05,15,40,16.70
2009,04,05,15,41,16.70
2009,04,05,15,42,16.70
2009,04,05,15,43,16.70
2009,04,05,15,44,16.70
2009,04,05,15,45,16.70
2009,04,05,15,46,16.70
2009,04,05,15,47,16.70
2009,04,05,15,48,16.70
2009,04,05,15,49,16.70
2009,04,05,15,50,16.70
2009,04,05,15,51,16.70
2009,04,05,15,52,16.60
2009,04,05,15,53,16.60
2009,04,05,15,54,16.50
2009,04,05,15,55,16.50
2009,04,05,15,56,16.50
2009,04,05,15,57,16.40
2009,04,05,15,58,16.40
2009,04,05,15,59,16.40
2009,04,05,16,00,16.40
2009,04,05,16,01,16.40
2009,04,05,16,02,16.40
2009,04,05,16,03,16.50
2009,04,05,16,04,16.50
2009,04,05,16,05,16.50
2009,04,05,16,06,16.50
2009,04,05,16,07,16.50
2009,04,05,16,08,16.50
2009,04,05,16,09,16.40
2009,04,05,16,10,16.40
2009,04,05,16,11,16.30
2009,04,05,16,12,16.30
2009,04,05,16,13,16.30
2009,04,05,16,14,16.20
2009,04,05,16,15,16.20
2009,04,05,16,16,16.20
2009,04,05,16,17,16.20
2009,04,05,16,18,16.20
2009,04,05,16,19,16.20
2009,04,05,16,20,16.10
2009,04,05,16,21,16.10
2009,04,05,16,22,16.10
2009,04,05,16,23,16.10
2009,04,05,16,24,16.00
2009,04,05,16,25,16.00
2009,04,05,16,26,15.90
2009,04,05,16,27,15.90
2009,04,05,16,28,15.90
2009,04,05,16,29,15.90
2009,04,05,16,30,15.90
2009,04,05,16,31,15.90
2009,04,05,16,32,15.90
2009,04,05,16,33,15.90
2009,04,05,16,34,15.90
2009,04,05,16,35,15.80
2009,04,05,16,36,15.80
2009,04,05,16,37,15.80
2009,04,05,16,38,15.80
2009,04,05,16,39,15.80
2009,04,05,16,40,15.80
2009,04,05,16,41,15.80
2009,04,05,16,42,15.80
2009,04,05,16,43,15.90
2009,04,05,16,44,15.90
2009,04,05,16,45,15.90
2009,04,05,16,46,15.90
2009,04,05,16,47,15.90
2009,04,05,16,48,16.00
2009,04,05,16,49,15.90
2009,04,05,16,50,15.90
2009,04,05,16,51,15.90
2009,04,05,16,52,15.90
2009,04,05,16,53,15.80
2009,04,05,16,54,15.80
2009,04,05,16,55,15.80
2009,04,05,16,56,15.80
2009,04,05,16,57,15.80
2009,04,05,16,58,15.80
2009,04,05,16,59,15.80
2009,04,05,17,00,15.80
2009,04,05,17,01,15.80
2009,04,05,17,02,15.80
2009,04,05,17,03,15.80
2009,04,05,17,04,15.70
2009,04,05,17,05,15.70
2009,04,05,17,06,15.70
2009,04,05,17,07,15.70
2009,04,05,17,08,15.70
2009,04,05,17,09,15.70
2009,04,05,17,10,15.70
2009,04,05,17,11,15.70
2009,04,05,17,12,15.70
2009,04,05,17,13,15.70
2009,04,05,17,14,15.70
2009,04,05,17,15,15.60
2009,04,05,17,16,15.60
2009,04,05,17,17,15.60
2009,04,05,17,18,15.60
2009,04,05,17,19,15.60
2009,04,05,17,20,15.50
2009,04,05,17,21,15.50
2009,04,05,17,22,15.50
2009,04,05,17,23,15.50
2009,04,05,17,24,15.50
2009,04,05,17,25,15.50
2009,04,05,17,26,15.50
2009,04,05,17,27,15.40
2009,04,05,17,28,15.40
2009,04,05,17,29,15.40
2009,04,05,17,30,15.40
2009,04,05,17,31,15.40
2009,04,05,17,32,15.40
2009,04,05,17,33,15.40
2009,04,05,17,34,15.40
2009,04,05,17,35,15.30
2009,04,05,17,36,15.30
2009,04,05,17,37,15.30
2009,04,05,17,38,15.30
2009,04,05,17,39,15.30
2009,04,05,17,40,15.30
2009,04,05,17,41,15.20
2009,04,05,17,42,15.20
2009,04,05,17,43,15.20
2009,04,05,17,44,15.10
2009,04,05,17,45,15.10
2009,04,05,17,46,15.10
2009,04,05,17,47,15.10
2009,04,05,17,48,15.00
2009,04,05,17,49,15.00
2009,04,05,17,50,15.00